START_TIME,STEP,MOV.,H8,t_acc.,H43,t_acc.,M25,t_acc.,H9,t_acc.
1979-03-10 00:00:27.010 ,4,1,0.,12.0,0.,12.0,0.,12.0,0.,12.0
1979-03-10 00:00:39.010 ,4,1,0.,12.0,0.,12.0,0.,12.0,0.,12.0
1979-03-10 00:00:51.010 ,7,1,0.,12.0,0.,12.0,0.,12.0,0.,12.0
1979-03-10 00:01:03.010 ,7,1,0.,12.0,0.,12.0,0.,12.0,0.,12.0
1979-03-10 00:01:15.010 ,3,1,0.,12.0,0.,12.0,0.,12.0,0.,12.0
1979-03-10 00:01:27.010 ,3,1,0.,12.0,0.,12.0,0.,12.0,0.,12.0
1979-03-10 00:01:39.010 ,0,1,0.,12.0,0.,12.0,0.,12.0,0.,12.0
1979-03-10 00:01:51.010 ,0,1,0.,12.0,0.,12.0,0.,12.0,0.,12.0
1979-03-10 00:02:03.010 ,4,1,0.,12.0,0.,12.0,0.,12.0,0.,12.0
1979-03-10 00:02:15.010 ,4,1,0.,12.0,0.,12.0,0.,12.0,0.,12.0
1979-03-10 00:02:27.010 ,7,1,0.,12.0,0.,12.0,0.,12.0,0.,12.0
1979-03-10 00:02:39.010 ,7,1,0.,12.0,0.,12.0,0.,12.0,0.,12.0
1979-03-10 00:02:51.010 ,3,1,0.,12.0,0.,12.0,0.,12.0,0.,12.0
1979-03-10 00:03:03.010 ,3,1,0.,12.0,0.,12.0,0.,12.0,0.,12.0
1979-03-10 00:03:15.010 ,0,1,0.,12.0,0.,12.0,0.,12.0,0.,12.0
1979-03-10 00:03:27.010 ,0,1,0.,12.0,0.,12.0,0.,12.0,0.,12.0
1979-03-10 00:03:39.010 ,4,1,0.,12.0,0.,12.0,0.,12.0,0.,12.0
1979-03-10 00:03:51.010 ,4,1,0.,12.0,0.,12.0,0.,12.0,0.,12.0
1979-03-10 00:04:03.010 ,7,1,0.,12.0,0.,12.0,0.,12.0,0.,12.0
1979-03-10 00:04:15.010 ,7,1,0.,12.0,0.,12.0,0.,12.0,0.,12.0
1979-03-10 00:04:27.010 ,3,1,0.,12.0,0.,12.0,0.,12.0,0.,12.0
1979-03-10 00:04:39.010 ,3,1,0.,12.0,0.,12.0,0.,12.0,0.,12.0
1979-03-10 00:04:51.010 ,0,1,0.,12.0,0.,12.0,0.,12.0,0.,12.0
1979-03-10 00:05:03.010 ,0,1,0.,12.0,0.,12.0,0.,12.0,0.,12.0
1979-03-10 00:05:15.010 ,4,1,0.,12.0,0.,12.0,0.,12.0,0.,12.0
1979-03-10 00:05:27.010 ,4,1,0.,12.0,0.,12.0,0.,12.0,0.,12.0
1979-03-10 00:05:39.010 ,7,1,0.,12.0,0.,12.0,0.,12.0,0.,12.0
1979-03-10 00:05:51.010 ,7,1,0.,12.0,0.,12.0,0.,12.0,0.,12.0
1979-03-10 00:06:03.010 ,3,1,0.,12.0,0.,12.0,0.,12.0,0.,12.0
1979-03-10 00:06:15.010 ,3,1,0.,12.0,0.,12.0,0.,12.0,0.,12.0
1979-03-10 00:06:27.010 ,0,1,0.,12.0,0.,12.0,0.,12.0,0.,12.0
1979-03-10 00:06:39.010 ,0,1,0.,12.0,0.,12.0,0.,12.0,0.,12.0
1979-03-10 00:06:51.010 ,4,1,0.,12.0,0.,12.0,0.,12.0,0.,12.0
1979-03-10 00:07:03.010 ,4,1,0.,12.0,0.,12.0,0.,12.0,0.,12.0
1979-03-10 00:07:15.010 ,7,1,0.,12.0,0.,12.0,0.,12.0,0.,12.0
1979-03-10 00:07:27.010 ,7,1,0.,12.0,0.,12.0,0.,12.0,0.,12.0
1979-03-10 00:07:39.010 ,3,1,0.,12.0,0.,12.0,0.,12.0,0.,12.0
1979-03-10 00:07:51.010 ,3,1,0.,12.0,0.,12.0,0.,12.0,0.,12.0
1979-03-10 00:08:03.010 ,0,1,0.,12.0,0.,12.0,0.,12.0,0.,12.0
1979-03-10 00:08:15.010 ,0,1,0.,12.0,0.,12.0,0.,12.0,0.,12.0
1979-03-10 00:08:27.010 ,4,1,0.,12.0,0.,12.0,0.,12.0,0.,12.0
1979-03-10 00:08:39.010 ,4,1,0.,12.0,0.,12.0,0.,12.0,0.,12.0
1979-03-10 00:08:51.010 ,7,1,0.,12.0,0.,12.0,0.,12.0,0.,12.0
1979-03-10 00:09:03.010 ,7,1,0.,12.0,0.,12.0,0.,12.0,0.,12.0
1979-03-10 00:09:15.010 ,3,1,0.,12.0,0.,12.0,0.,12.0,0.,12.0
1979-03-10 00:09:27.010 ,3,1,0.,12.0,0.,12.0,0.,12.0,0.,12.0
1979-03-10 00:09:39.010 ,0,1,0.,12.0,0.,12.0,0.,12.0,0.,12.0
1979-03-10 00:09:51.010 ,0,1,0.,12.0,0.,12.0,0.,12.0,0.,12.0
1979-03-10 00:10:03.010 ,4,1,0.,12.0,0.,12.0,0.,12.0,0.,12.0
1979-03-10 00:10:15.010 ,4,1,0.,12.0,0.,12.0,0.,12.0,0.,12.0
1979-03-10 00:10:27.010 ,7,1,0.,12.0,0.,12.0,0.,12.0,0.,12.0
1979-03-10 00:10:39.010 ,7,1,0.,12.0,0.,12.0,0.,12.0,0.,12.0
1979-03-10 00:10:51.010 ,3,1,0.,12.0,0.,12.0,0.,12.0,0.,12.0
1979-03-10 00:11:03.010 ,3,1,0.,12.0,0.,12.0,0.,12.0,0.,12.0
1979-03-10 00:11:15.010 ,0,1,0.,12.0,0.,12.0,0.,12.0,0.,12.0
1979-03-10 00:11:27.010 ,0,1,0.,12.0,0.,12.0,0.,12.0,0.,12.0
1979-03-10 00:11:39.010 ,4,1,0.,12.0,0.,12.0,0.,12.0,0.,12.0
1979-03-10 00:11:51.010 ,4,1,0.,12.0,0.,12.0,0.,12.0,0.,12.0
1979-03-10 00:12:03.010 ,7,1,0.,12.0,0.,12.0,0.,12.0,0.,12.0
1979-03-10 00:12:15.010 ,7,1,0.,12.0,0.,12.0,0.,12.0,0.,12.0
1979-03-10 00:12:27.010 ,3,1,0.,12.0,0.,12.0,0.,12.0,0.,12.0
1979-03-10 00:12:39.010 ,3,1,0.,12.0,0.,12.0,0.,12.0,0.,12.0
1979-03-10 00:12:51.010 ,0,1,0.,12.0,0.,12.0,0.,12.0,0.,12.0
1979-03-10 00:13:03.010 ,0,1,0.,12.0,0.,12.0,0.,12.0,0.,12.0
1979-03-10 00:13:15.010 ,4,1,0.,12.0,0.,12.0,0.,12.0,0.,12.0
1979-03-10 00:13:27.010 ,4,1,0.,12.0,0.,12.0,0.,12.0,0.,12.0
1979-03-10 00:13:39.010 ,7,1,0.,12.0,0.,12.0,0.,12.0,0.,12.0
1979-03-10 00:13:51.010 ,7,1,0.,12.0,0.,12.0,0.,12.0,0.,12.0
1979-03-10 00:14:03.010 ,3,1,0.,12.0,0.,12.0,0.,12.0,0.,12.0
1979-03-10 00:14:15.010 ,3,1,0.,12.0,0.,12.0,0.,12.0,0.,12.0
1979-03-10 00:14:27.010 ,0,1,0.,12.0,0.,12.0,0.,12.0,0.,12.0
1979-03-10 00:14:39.010 ,0,1,0.,12.0,0.,12.0,0.,12.0,0.,12.0
1979-03-10 00:14:51.010 ,4,1,0.,12.0,0.,12.0,0.,12.0,0.,12.0
1979-03-10 00:15:03.010 ,4,1,0.,12.0,0.,12.0,0.,12.0,0.,12.0
1979-03-10 00:15:15.010 ,7,1,0.,12.0,0.,12.0,0.,12.0,0.,12.0
1979-03-10 00:15:27.010 ,7,1,0.,12.0,0.,12.0,0.,12.0,0.,12.0
1979-03-10 00:15:39.010 ,3,1,0.,12.0,0.,12.0,0.,12.0,0.,12.0
1979-03-10 00:15:51.010 ,3,1,0.,12.0,0.,12.0,0.,12.0,0.,12.0
1979-03-10 00:16:03.010 ,0,1,0.,12.0,0.,12.0,0.,12.0,0.,12.0
1979-03-10 00:16:15.010 ,0,1,0.,12.0,0.,12.0,0.,12.0,0.,12.0
1979-03-10 00:16:27.010 ,4,1,0.,12.0,0.,12.0,0.,12.0,0.,12.0
1979-03-10 00:16:39.010 ,4,1,0.,12.0,0.,12.0,0.,12.0,0.,12.0
1979-03-10 00:16:51.010 ,7,1,0.,12.0,0.,12.0,0.,12.0,0.,12.0
1979-03-10 00:17:03.010 ,7,1,0.,12.0,0.,12.0,0.,12.0,0.,12.0
1979-03-10 00:17:15.010 ,3,1,0.,12.0,0.,12.0,0.,12.0,0.,12.0
1979-03-10 00:17:27.010 ,3,1,0.,12.0,0.,12.0,0.,12.0,0.,12.0
1979-03-10 00:17:39.010 ,0,1,0.,12.0,0.,12.0,0.,12.0,0.,12.0
1979-03-10 00:17:51.010 ,0,1,0.,12.0,0.,12.0,0.,12.0,0.,12.0
1979-03-10 00:18:03.010 ,4,1,0.,12.0,0.,12.0,0.,12.0,0.,12.0
1979-03-10 00:18:15.010 ,4,1,0.,12.0,0.,12.0,0.,12.0,0.,12.0
1979-03-10 00:18:27.010 ,7,1,0.,12.0,0.,12.0,0.,12.0,0.,12.0
1979-03-10 00:18:39.010 ,7,1,0.,12.0,0.,12.0,0.,12.0,0.,12.0
1979-03-10 00:18:51.010 ,3,1,0.,12.0,0.,12.0,0.,12.0,0.,12.0
1979-03-10 00:19:03.010 ,3,1,0.,12.0,0.,12.0,0.,12.0,0.,12.0
1979-03-10 00:19:15.010 ,0,1,0.,12.0,0.,12.0,0.,12.0,0.,12.0
1979-03-10 00:19:27.010 ,0,1,0.,12.0,0.,12.0,0.,12.0,0.,12.0
1979-03-10 00:19:39.010 ,4,1,0.,12.0,0.,12.0,0.,12.0,0.,12.0
1979-03-10 00:19:51.010 ,4,1,0.,12.0,0.,12.0,0.,12.0,0.,12.0
1979-03-10 00:20:03.010 ,7,1,0.,12.0,0.,12.0,0.,12.0,0.,12.0
1979-03-10 00:20:15.010 ,7,1,0.,12.0,0.,12.0,0.,12.0,0.,12.0
1979-03-10 00:20:27.010 ,3,1,0.,12.0,0.,12.0,0.,12.0,0.,12.0
1979-03-10 00:20:39.010 ,3,1,0.,12.0,0.,12.0,0.,12.0,0.,12.0
1979-03-10 00:20:51.010 ,0,1,0.,12.0,0.,12.0,0.,12.0,0.,12.0
1979-03-10 00:21:03.010 ,0,1,0.,12.0,0.,12.0,0.,12.0,0.,12.0
1979-03-10 00:21:15.010 ,4,1,0.,12.0,0.,12.0,0.,12.0,0.,12.0
1979-03-10 00:21:27.010 ,4,1,0.,12.0,0.,12.0,0.,12.0,0.,12.0
1979-03-10 00:21:39.010 ,7,1,0.,12.0,0.,12.0,0.,12.0,0.,12.0
1979-03-10 00:21:51.010 ,7,1,0.,12.0,0.,12.0,0.,12.0,0.,12.0
1979-03-10 00:22:03.010 ,3,1,0.,12.0,0.,12.0,0.,12.0,0.,12.0
1979-03-10 00:22:15.010 ,3,1,0.,12.0,0.,12.0,0.,12.0,0.,12.0
1979-03-10 00:22:27.010 ,0,1,0.,12.0,0.,12.0,0.,12.0,0.,12.0
1979-03-10 00:22:39.010 ,0,1,0.,12.0,0.,12.0,0.,12.0,0.,12.0
1979-03-10 00:22:51.010 ,4,1,0.,12.0,0.,12.0,0.,12.0,0.,12.0
1979-03-10 00:23:03.010 ,4,1,0.,12.0,0.,12.0,0.,12.0,0.,12.0
1979-03-10 00:23:15.010 ,7,1,0.,12.0,0.,12.0,0.,12.0,0.,12.0
1979-03-10 00:23:27.010 ,7,1,0.,12.0,0.,12.0,0.,12.0,0.,12.0
1979-03-10 00:23:39.010 ,3,1,0.,12.0,0.,12.0,0.,12.0,0.,12.0
1979-03-10 00:23:51.010 ,3,1,0.,12.0,0.,12.0,0.,12.0,0.,12.0
1979-03-10 00:24:03.010 ,0,1,1.,12.0,0.,12.0,0.,12.0,0.,12.0
1979-03-10 00:24:15.010 ,0,1,0.,12.0,0.,12.0,0.,12.0,0.,12.0
1979-03-10 00:24:27.010 ,4,1,0.,12.0,0.,12.0,0.,12.0,0.,12.0
1979-03-10 00:24:39.010 ,4,1,0.,12.0,0.,12.0,0.,12.0,0.,12.0
1979-03-10 00:24:51.010 ,7,1,0.,12.0,0.,12.0,0.,12.0,0.,12.0
1979-03-10 00:25:03.010 ,7,1,0.,12.0,0.,12.0,0.,12.0,0.,12.0
1979-03-10 00:25:15.010 ,3,1,0.,12.0,0.,12.0,0.,12.0,0.,12.0
1979-03-10 00:25:27.010 ,3,1,0.,12.0,0.,12.0,0.,12.0,0.,12.0
1979-03-10 00:25:39.010 ,0,1,0.,12.0,0.,12.0,0.,12.0,0.,12.0
1979-03-10 00:25:51.010 ,0,1,0.,12.0,0.,12.0,0.,12.0,0.,12.0
1979-03-10 00:26:03.010 ,4,1,0.,12.0,0.,12.0,0.,12.0,0.,12.0
1979-03-10 00:26:15.010 ,4,1,0.,12.0,0.,12.0,0.,12.0,0.,12.0
1979-03-10 00:26:27.010 ,7,1,0.,12.0,0.,12.0,0.,12.0,0.,12.0
1979-03-10 00:26:39.010 ,7,1,0.,12.0,0.,12.0,0.,12.0,0.,12.0
1979-03-10 00:26:51.010 ,3,1,0.,12.0,0.,12.0,0.,12.0,0.,12.0
1979-03-10 00:27:03.010 ,3,1,0.,12.0,0.,12.0,0.,12.0,0.,12.0
1979-03-10 00:27:15.010 ,0,1,0.,12.0,0.,12.0,0.,12.0,0.,12.0
1979-03-10 00:27:27.010 ,0,1,0.,12.0,0.,12.0,0.,12.0,0.,12.0
1979-03-10 00:27:39.010 ,4,1,0.,12.0,0.,12.0,0.,12.0,0.,12.0
1979-03-10 00:27:51.010 ,4,1,0.,12.0,0.,12.0,0.,12.0,0.,12.0
1979-03-10 00:28:03.010 ,7,1,0.,12.0,0.,12.0,0.,12.0,0.,12.0
1979-03-10 00:28:15.010 ,7,1,0.,12.0,0.,12.0,0.,12.0,0.,12.0
1979-03-10 00:28:27.010 ,3,1,0.,12.0,0.,12.0,0.,12.0,0.,12.0
1979-03-10 00:28:39.010 ,3,1,0.,12.0,0.,12.0,0.,12.0,0.,12.0
1979-03-10 00:28:51.010 ,0,1,0.,12.0,0.,12.0,0.,12.0,0.,12.0
1979-03-10 00:29:03.010 ,0,1,0.,12.0,0.,12.0,0.,12.0,0.,12.0
1979-03-10 00:29:15.010 ,4,1,0.,12.0,0.,12.0,0.,12.0,0.,12.0
1979-03-10 00:29:27.010 ,4,1,0.,12.0,0.,12.0,0.,12.0,0.,12.0
1979-03-10 00:29:39.010 ,7,1,0.,12.0,0.,12.0,0.,12.0,0.,12.0
1979-03-10 00:29:51.010 ,7,1,0.,12.0,0.,12.0,0.,12.0,0.,12.0
1979-03-10 00:30:03.010 ,3,1,0.,12.0,0.,12.0,0.,12.0,0.,12.0
1979-03-10 00:30:15.010 ,3,1,0.,12.0,0.,12.0,0.,12.0,0.,12.0
1979-03-10 00:30:27.010 ,0,1,0.,12.0,0.,12.0,0.,12.0,0.,12.0
1979-03-10 00:30:39.010 ,0,1,0.,12.0,0.,12.0,0.,12.0,0.,12.0
1979-03-10 00:30:51.010 ,4,1,0.,12.0,0.,12.0,0.,12.0,0.,12.0
1979-03-10 00:31:03.010 ,4,1,0.,12.0,0.,12.0,0.,12.0,0.,12.0
1979-03-10 00:31:15.010 ,7,1,0.,12.0,0.,12.0,0.,12.0,0.,12.0
1979-03-10 00:31:27.010 ,7,1,0.,12.0,0.,12.0,0.,12.0,0.,12.0
1979-03-10 00:31:39.010 ,3,1,0.,12.0,0.,12.0,0.,12.0,0.,12.0
1979-03-10 00:31:51.010 ,3,1,1.,12.0,0.,12.0,0.,12.0,0.,12.0
1979-03-10 00:32:03.010 ,0,1,0.,12.0,0.,12.0,0.,12.0,0.,12.0
1979-03-10 00:32:15.010 ,0,1,0.,12.0,0.,12.0,0.,12.0,0.,12.0
1979-03-10 00:32:27.010 ,4,1,0.,12.0,0.,12.0,0.,12.0,0.,12.0
1979-03-10 00:32:39.010 ,4,1,0.,12.0,0.,12.0,0.,12.0,0.,12.0
1979-03-10 00:32:51.010 ,7,1,0.,12.0,0.,12.0,0.,12.0,0.,12.0
1979-03-10 00:33:03.010 ,7,1,0.,12.0,0.,12.0,0.,12.0,0.,12.0
1979-03-10 00:33:15.010 ,3,1,0.,12.0,0.,12.0,0.,12.0,0.,12.0
1979-03-10 00:33:27.010 ,3,1,0.,12.0,0.,12.0,0.,12.0,0.,12.0
1979-03-10 00:33:39.010 ,0,1,0.,12.0,0.,12.0,0.,12.0,0.,12.0
1979-03-10 00:33:51.010 ,0,1,0.,12.0,0.,12.0,0.,12.0,0.,12.0
1979-03-10 00:34:03.010 ,4,1,0.,12.0,0.,12.0,0.,12.0,0.,12.0
1979-03-10 00:34:15.010 ,4,1,0.,12.0,0.,12.0,0.,12.0,0.,12.0
1979-03-10 00:34:27.010 ,7,1,0.,12.0,0.,12.0,0.,12.0,0.,12.0
1979-03-10 00:34:39.010 ,7,1,0.,12.0,0.,12.0,0.,12.0,0.,12.0
1979-03-10 00:34:51.010 ,3,1,0.,12.0,0.,12.0,0.,12.0,0.,12.0
1979-03-10 00:35:03.010 ,3,1,0.,12.0,0.,12.0,0.,12.0,0.,12.0
1979-03-10 00:35:15.010 ,0,1,0.,12.0,0.,12.0,0.,12.0,0.,12.0
1979-03-10 00:35:27.010 ,0,1,0.,12.0,0.,12.0,0.,12.0,0.,12.0
1979-03-10 00:35:39.010 ,4,1,0.,12.0,0.,12.0,0.,12.0,0.,12.0
1979-03-10 00:35:51.010 ,4,1,0.,12.0,0.,12.0,0.,12.0,0.,12.0
1979-03-10 00:36:03.010 ,7,1,0.,12.0,0.,12.0,0.,12.0,0.,12.0
1979-03-10 00:36:15.010 ,7,1,0.,12.0,0.,12.0,0.,12.0,0.,12.0
1979-03-10 00:36:27.010 ,3,1,0.,12.0,0.,12.0,0.,12.0,0.,12.0
1979-03-10 00:36:39.010 ,3,1,0.,12.0,0.,12.0,0.,12.0,0.,12.0
1979-03-10 00:36:51.010 ,0,1,0.,12.0,0.,12.0,0.,12.0,0.,12.0
1979-03-10 00:37:03.010 ,0,1,0.,12.0,0.,12.0,0.,12.0,0.,12.0
1979-03-10 00:37:15.010 ,4,1,0.,12.0,0.,12.0,0.,12.0,0.,12.0
1979-03-10 00:37:27.010 ,4,1,1.,12.0,0.,12.0,0.,12.0,0.,12.0
1979-03-10 00:37:39.010 ,7,1,0.,12.0,0.,12.0,0.,12.0,0.,12.0
1979-03-10 00:37:51.010 ,7,1,0.,12.0,0.,12.0,0.,12.0,0.,12.0
1979-03-10 00:38:03.010 ,3,1,0.,12.0,0.,12.0,0.,12.0,0.,12.0
1979-03-10 00:38:15.010 ,3,1,0.,12.0,0.,12.0,0.,12.0,0.,12.0
1979-03-10 00:38:27.010 ,0,1,0.,12.0,0.,12.0,0.,12.0,0.,12.0
1979-03-10 00:38:39.010 ,0,1,0.,12.0,0.,12.0,0.,12.0,0.,12.0
1979-03-10 00:38:51.010 ,4,1,0.,12.0,0.,12.0,0.,12.0,0.,12.0
1979-03-10 00:39:03.010 ,4,1,0.,12.0,0.,12.0,0.,12.0,0.,12.0
1979-03-10 00:39:15.010 ,5,0,0.,12.0,0.,12.0,0.,12.0,0.,12.0
1979-03-10 00:39:27.010 ,5,0,0.,12.0,0.,12.0,0.,12.0,0.,12.0
1979-03-10 00:39:39.010 ,6,0,0.,12.0,0.,12.0,0.,12.0,0.,12.0
1979-03-10 00:39:51.010 ,6,0,0.,12.0,0.,12.0,0.,12.0,0.,12.0
1979-03-10 00:40:03.010 ,7,0,0.,12.0,0.,12.0,0.,12.0,0.,12.0
1979-03-10 00:40:15.010 ,7,0,0.,12.0,0.,12.0,0.,12.0,0.,12.0
1979-03-10 00:40:27.010 ,7,0,0.,12.0,0.,12.0,0.,12.0,0.,12.0
1979-03-10 00:40:39.010 ,7,0,0.,12.0,0.,12.0,0.,12.0,0.,12.0
1979-03-10 00:40:51.010 ,6,0,0.,12.0,0.,12.0,0.,12.0,0.,12.0
1979-03-10 00:41:03.010 ,6,0,0.,12.0,0.,12.0,0.,12.0,0.,12.0
1979-03-10 00:41:15.010 ,5,0,0.,12.0,0.,12.0,0.,12.0,0.,12.0
1979-03-10 00:41:27.010 ,5,0,0.,12.0,0.,12.0,0.,12.0,0.,12.0
1979-03-10 00:41:39.010 ,4,0,0.,12.0,0.,12.0,0.,12.0,0.,12.0
1979-03-10 00:41:51.010 ,4,0,0.,12.0,0.,12.0,0.,12.0,0.,12.0
1979-03-10 00:42:03.010 ,3,0,0.,12.0,0.,12.0,0.,12.0,0.,12.0
1979-03-10 00:42:15.010 ,3,0,0.,12.0,0.,12.0,0.,12.0,0.,12.0
1979-03-10 00:42:27.010 ,2,0,0.,12.0,0.,12.0,0.,12.0,0.,12.0
1979-03-10 00:42:39.010 ,2,0,0.,12.0,0.,12.0,0.,12.0,0.,12.0
1979-03-10 00:42:51.010 ,1,0,0.,12.0,0.,12.0,0.,12.0,0.,12.0
1979-03-10 00:43:03.010 ,1,0,0.,12.0,0.,12.0,0.,12.0,0.,12.0
1979-03-10 00:43:15.010 ,0,0,0.,12.0,0.,12.0,0.,12.0,0.,12.0
1979-03-10 00:43:27.010 ,0,0,0.,12.0,0.,12.0,0.,12.0,0.,12.0
1979-03-10 00:43:39.010 ,0,0,0.,12.0,0.,12.0,0.,12.0,0.,12.0
1979-03-10 00:43:51.010 ,0,0,0.,12.0,0.,12.0,0.,12.0,0.,12.0
1979-03-10 00:44:03.010 ,1,0,0.,12.0,0.,12.0,0.,12.0,0.,12.0
1979-03-10 00:44:15.010 ,1,0,0.,12.0,0.,12.0,0.,12.0,0.,12.0
1979-03-10 00:44:27.010 ,2,0,0.,12.0,0.,12.0,0.,12.0,0.,12.0
1979-03-10 00:44:39.010 ,2,0,0.,12.0,0.,12.0,0.,12.0,0.,12.0
1979-03-10 00:44:51.010 ,3,0,0.,12.0,0.,12.0,0.,12.0,0.,12.0
1979-03-10 00:45:03.010 ,3,0,0.,12.0,0.,12.0,0.,12.0,0.,12.0
1979-03-10 00:45:15.010 ,4,0,0.,12.0,0.,12.0,0.,12.0,0.,12.0
1979-03-10 00:45:27.010 ,4,0,0.,12.0,0.,12.0,0.,12.0,0.,12.0
1979-03-10 00:45:39.010 ,5,0,0.,12.0,0.,12.0,0.,12.0,0.,12.0
1979-03-10 00:45:51.010 ,5,0,0.,12.0,0.,12.0,0.,12.0,0.,12.0
1979-03-10 00:46:03.010 ,6,0,0.,12.0,0.,12.0,0.,12.0,0.,12.0
1979-03-10 00:46:15.010 ,6,0,0.,12.0,0.,12.0,0.,12.0,0.,12.0
1979-03-10 00:46:27.010 ,7,0,0.,12.0,0.,12.0,0.,12.0,0.,12.0
1979-03-10 00:46:39.010 ,7,0,0.,12.0,0.,12.0,0.,12.0,0.,12.0
1979-03-10 00:46:51.010 ,7,0,0.,12.0,0.,12.0,0.,12.0,0.,12.0
1979-03-10 00:47:03.010 ,7,0,0.,12.0,0.,12.0,0.,12.0,0.,12.0
1979-03-10 00:47:15.010 ,6,0,0.,12.0,0.,12.0,0.,12.0,0.,12.0
1979-03-10 00:47:27.010 ,6,0,0.,12.0,0.,12.0,0.,12.0,0.,12.0
1979-03-10 00:47:39.010 ,5,0,0.,12.0,0.,12.0,0.,12.0,0.,12.0
1979-03-10 00:47:51.010 ,5,0,0.,12.0,0.,12.0,0.,12.0,0.,12.0
1979-03-10 00:48:03.010 ,4,0,0.,12.0,0.,12.0,0.,12.0,0.,12.0
1979-03-10 00:48:15.010 ,4,0,0.,12.0,0.,12.0,0.,12.0,0.,12.0
1979-03-10 00:48:27.010 ,3,0,0.,12.0,0.,12.0,0.,12.0,0.,12.0
1979-03-10 00:48:39.010 ,3,0,0.,12.0,0.,12.0,0.,12.0,0.,12.0
1979-03-10 00:48:51.010 ,2,0,1.,12.0,0.,12.0,0.,12.0,0.,12.0
1979-03-10 00:49:03.010 ,2,0,0.,12.0,0.,12.0,0.,12.0,0.,12.0
1979-03-10 00:49:15.010 ,1,0,0.,12.0,0.,12.0,0.,12.0,0.,12.0
1979-03-10 00:49:27.010 ,1,0,0.,12.0,0.,12.0,0.,12.0,0.,12.0
1979-03-10 00:49:39.010 ,0,0,0.,12.0,0.,12.0,0.,12.0,0.,12.0
1979-03-10 00:49:51.010 ,0,0,0.,12.0,0.,12.0,0.,12.0,0.,12.0
1979-03-10 00:50:03.010 ,0,0,0.,12.0,0.,12.0,0.,12.0,0.,12.0
1979-03-10 00:50:15.010 ,0,0,0.,12.0,0.,12.0,0.,12.0,0.,12.0
1979-03-10 00:50:27.010 ,1,0,0.,12.0,0.,12.0,0.,12.0,0.,12.0
1979-03-10 00:50:39.010 ,1,0,0.,12.0,0.,12.0,0.,12.0,0.,12.0
1979-03-10 00:50:51.010 ,2,0,0.,12.0,0.,12.0,0.,12.0,0.,12.0
1979-03-10 00:51:03.010 ,2,0,0.,12.0,0.,12.0,0.,12.0,0.,12.0
1979-03-10 00:51:15.010 ,3,0,0.,12.0,0.,12.0,0.,12.0,0.,12.0
1979-03-10 00:51:27.010 ,3,0,0.,12.0,0.,12.0,0.,12.0,0.,12.0
1979-03-10 00:51:39.010 ,4,0,0.,12.0,0.,12.0,0.,12.0,0.,12.0
1979-03-10 00:51:51.010 ,4,0,0.,12.0,0.,12.0,0.,12.0,0.,12.0
1979-03-10 00:52:03.010 ,5,0,0.,12.0,0.,12.0,0.,12.0,0.,12.0
1979-03-10 00:52:15.010 ,5,0,0.,12.0,0.,12.0,0.,12.0,0.,12.0
1979-03-10 00:52:27.010 ,6,0,0.,12.0,0.,12.0,0.,12.0,0.,12.0
1979-03-10 00:52:39.010 ,6,0,0.,12.0,0.,12.0,0.,12.0,0.,12.0
1979-03-10 00:52:51.010 ,7,0,0.,12.0,0.,12.0,0.,12.0,0.,12.0
1979-03-10 00:53:03.010 ,7,0,0.,12.0,0.,12.0,0.,12.0,0.,12.0
1979-03-10 00:53:15.010 ,7,0,0.,12.0,0.,12.0,0.,12.0,0.,12.0
1979-03-10 00:53:27.010 ,7,0,0.,12.0,0.,12.0,0.,12.0,0.,12.0
1979-03-10 00:53:39.010 ,6,0,0.,12.0,0.,12.0,0.,12.0,0.,12.0
1979-03-10 00:53:51.010 ,6,0,0.,12.0,0.,12.0,0.,12.0,0.,12.0
1979-03-10 00:54:03.010 ,5,0,0.,12.0,0.,12.0,0.,12.0,0.,12.0
1979-03-10 00:54:15.010 ,5,0,0.,12.0,0.,12.0,0.,12.0,0.,12.0
1979-03-10 00:54:27.010 ,4,0,0.,12.0,0.,12.0,0.,12.0,0.,12.0
1979-03-10 00:54:39.010 ,4,0,0.,12.0,0.,12.0,0.,12.0,0.,12.0
1979-03-10 00:54:51.010 ,3,0,0.,12.0,0.,12.0,0.,12.0,0.,12.0
1979-03-10 00:55:03.010 ,3,0,0.,12.0,0.,12.0,0.,12.0,0.,12.0
1979-03-10 00:55:15.010 ,2,0,0.,12.0,0.,12.0,0.,12.0,0.,12.0
1979-03-10 00:55:27.010 ,2,0,0.,12.0,0.,12.0,0.,12.0,0.,12.0
1979-03-10 00:55:39.010 ,1,0,0.,12.0,0.,12.0,0.,12.0,0.,12.0
1979-03-10 00:55:51.010 ,1,0,0.,12.0,0.,12.0,0.,12.0,0.,12.0
1979-03-10 00:56:03.010 ,0,0,0.,12.0,0.,12.0,0.,12.0,0.,12.0
1979-03-10 00:56:15.010 ,0,0,0.,12.0,0.,12.0,0.,12.0,0.,12.0
1979-03-10 00:56:27.010 ,0,0,0.,12.0,0.,12.0,0.,12.0,0.,12.0
1979-03-10 00:56:39.010 ,0,0,0.,12.0,0.,12.0,0.,12.0,0.,12.0
1979-03-10 00:56:51.010 ,1,0,0.,12.0,0.,12.0,0.,12.0,0.,12.0
1979-03-10 00:57:03.010 ,1,0,0.,12.0,0.,12.0,0.,12.0,0.,12.0
1979-03-10 00:57:15.010 ,2,0,0.,12.0,0.,12.0,0.,12.0,0.,12.0
1979-03-10 00:57:27.010 ,2,0,0.,12.0,0.,12.0,0.,12.0,0.,12.0
1979-03-10 00:57:39.010 ,3,0,0.,12.0,0.,12.0,0.,12.0,0.,12.0
1979-03-10 00:57:51.010 ,3,0,0.,12.0,0.,12.0,0.,12.0,0.,12.0
1979-03-10 00:58:03.010 ,4,0,0.,12.0,0.,12.0,0.,12.0,0.,12.0
1979-03-10 00:58:15.010 ,4,0,0.,12.0,0.,12.0,0.,12.0,0.,12.0
1979-03-10 00:58:27.010 ,5,0,0.,12.0,0.,12.0,0.,12.0,0.,12.0
1979-03-10 00:58:39.010 ,5,0,0.,12.0,0.,12.0,0.,12.0,0.,12.0
1979-03-10 00:58:51.010 ,6,0,0.,12.0,0.,12.0,0.,12.0,0.,12.0
1979-03-10 00:59:03.010 ,6,0,0.,12.0,0.,12.0,0.,12.0,0.,12.0
1979-03-10 00:59:15.010 ,7,0,0.,12.0,0.,12.0,0.,12.0,0.,12.0
1979-03-10 00:59:27.010 ,7,0,0.,12.0,0.,12.0,0.,12.0,0.,12.0
1979-03-10 00:59:39.010 ,7,0,0.,12.0,0.,12.0,0.,12.0,0.,12.0
1979-03-10 00:59:51.010 ,7,0,0.,12.0,0.,12.0,0.,12.0,0.,12.0
1979-03-10 01:00:03.010 ,6,0,0.,12.0,0.,12.0,0.,12.0,0.,12.0
1979-03-10 01:00:15.010 ,6,0,0.,12.0,0.,12.0,0.,12.0,0.,12.0
1979-03-10 01:00:27.010 ,5,0,0.,12.0,0.,12.0,0.,12.0,0.,12.0
1979-03-10 01:00:39.010 ,5,0,0.,12.0,0.,12.0,0.,12.0,0.,12.0
1979-03-10 01:00:51.010 ,4,0,0.,12.0,0.,12.0,0.,12.0,0.,12.0
1979-03-10 01:01:03.010 ,4,0,0.,12.0,0.,12.0,0.,12.0,0.,12.0
1979-03-10 01:01:15.010 ,0,0,0.,12.0,0.,12.0,0.,12.0,0.,12.0
1979-03-10 01:01:27.010 ,0,0,,0,,0,,0,,0
1979-03-10 01:01:41.410 ,0,0,0.,12.0,0.,12.0,0.,12.0,0.,12.0
1979-03-10 01:01:53.410 ,0,0,0.,12.0,0.,12.0,0.,12.0,0.,12.0
1979-03-10 01:02:03.010 ,1,0,0.,12.0,0.,12.0,0.,12.0,0.,12.0
1979-03-10 01:02:15.010 ,1,0,0.,12.0,0.,12.0,0.,12.0,0.,12.0
1979-03-10 01:02:27.010 ,0,0,0.,12.0,0.,12.0,0.,12.0,0.,12.0
1979-03-10 01:02:39.010 ,0,0,0.,12.0,0.,12.0,0.,12.0,0.,12.0
1979-03-10 01:02:51.010 ,0,0,0.,12.0,0.,12.0,0.,12.0,0.,12.0
1979-03-10 01:03:03.010 ,0,0,0.,12.0,0.,12.0,0.,12.0,0.,12.0
1979-03-10 01:03:15.010 ,1,0,0.,12.0,0.,12.0,0.,12.0,0.,12.0
1979-03-10 01:03:27.010 ,1,0,0.,12.0,0.,12.0,0.,12.0,0.,12.0
1979-03-10 01:03:39.010 ,2,0,0.,12.0,0.,12.0,0.,12.0,0.,12.0
1979-03-10 01:03:51.010 ,2,0,0.,12.0,0.,12.0,0.,12.0,0.,12.0
1979-03-10 01:04:03.010 ,3,0,0.,12.0,0.,12.0,0.,12.0,0.,12.0
1979-03-10 01:04:15.010 ,3,0,0.,12.0,0.,12.0,0.,12.0,0.,12.0
1979-03-10 01:04:27.010 ,4,1,0.,12.0,0.,12.0,0.,12.0,0.,12.0
1979-03-10 01:04:39.010 ,4,1,,0,,0,,0,,0
1979-03-10 01:04:51.010 ,5,0,0.,12.0,0.,12.0,0.,12.0,0.,12.0
1979-03-10 01:05:03.010 ,5,0,0.,12.0,0.,12.0,0.,12.0,0.,12.0
1979-03-10 01:05:15.010 ,5,1,,0,,0,,0,,0
1979-03-10 01:05:27.010 ,5,1,,0,,0,,0,,0
1979-03-10 01:07:52.810 ,0,0,,0,,0,,0,,0
1979-03-10 01:08:04.810 ,0,0,0.,12.0,0.,12.0,0.,12.0,0.,12.0
1979-03-10 01:08:03.010 ,2,0,0.,12.0,0.,12.0,0.,12.0,0.,12.0
1979-03-10 01:08:15.010 ,2,0,0.,12.0,0.,12.0,0.,12.0,0.,12.0
1979-03-10 01:08:27.010 ,1,0,0.,12.0,0.,12.0,0.,12.0,0.,12.0
1979-03-10 01:08:39.010 ,1,0,0.,12.0,0.,12.0,0.,12.0,0.,12.0
1979-03-10 01:08:51.010 ,0,0,0.,12.0,0.,12.0,0.,12.0,0.,12.0
1979-03-10 01:09:03.010 ,0,0,0.,12.0,0.,12.0,0.,12.0,0.,12.0
1979-03-10 01:09:15.010 ,0,0,0.,12.0,0.,12.0,0.,12.0,0.,12.0
1979-03-10 01:09:27.010 ,0,0,0.,12.0,0.,12.0,0.,12.0,0.,12.0
1979-03-10 01:09:39.010 ,1,0,0.,12.0,0.,12.0,0.,12.0,0.,12.0
1979-03-10 01:09:51.010 ,1,0,0.,12.0,0.,12.0,0.,12.0,0.,12.0
1979-03-10 01:10:03.010 ,2,0,0.,12.0,0.,12.0,0.,12.0,0.,12.0
1979-03-10 01:10:15.010 ,2,0,0.,12.0,0.,12.0,0.,12.0,0.,12.0
1979-03-10 01:10:27.010 ,3,0,0.,12.0,0.,12.0,0.,12.0,0.,12.0
1979-03-10 01:10:39.010 ,3,0,0.,12.0,0.,12.0,0.,12.0,0.,12.0
1979-03-10 01:10:51.010 ,4,0,0.,12.0,0.,12.0,0.,12.0,0.,12.0
1979-03-10 01:11:03.010 ,4,0,0.,12.0,0.,12.0,0.,12.0,0.,12.0
1979-03-10 01:11:15.010 ,5,0,0.,12.0,0.,12.0,0.,12.0,0.,12.0
1979-03-10 01:11:27.010 ,5,0,0.,12.0,0.,12.0,0.,12.0,0.,12.0
1979-03-10 01:11:39.010 ,6,0,0.,12.0,0.,12.0,0.,12.0,0.,12.0
1979-03-10 01:11:51.010 ,6,0,0.,12.0,0.,12.0,0.,12.0,0.,12.0
1979-03-10 01:12:03.010 ,7,0,0.,12.0,0.,12.0,0.,12.0,0.,12.0
1979-03-10 01:12:15.010 ,7,0,0.,12.0,0.,12.0,0.,12.0,0.,12.0
1979-03-10 01:12:27.010 ,7,0,0.,12.0,0.,12.0,0.,12.0,0.,12.0
1979-03-10 01:12:39.010 ,7,0,0.,12.0,0.,12.0,0.,12.0,0.,12.0
1979-03-10 01:12:51.010 ,6,0,0.,12.0,0.,12.0,0.,12.0,0.,12.0
1979-03-10 01:13:03.010 ,6,0,0.,12.0,0.,12.0,0.,12.0,0.,12.0
1979-03-10 01:13:15.010 ,5,0,0.,12.0,0.,12.0,0.,12.0,0.,12.0
1979-03-10 01:13:27.010 ,5,0,0.,12.0,0.,12.0,0.,12.0,0.,12.0
1979-03-10 01:13:39.010 ,4,0,0.,12.0,0.,12.0,0.,12.0,0.,12.0
1979-03-10 01:13:51.010 ,4,0,0.,12.0,0.,12.0,0.,12.0,0.,12.0
1979-03-10 01:14:03.010 ,3,0,0.,12.0,0.,12.0,0.,12.0,0.,12.0
1979-03-10 01:14:15.010 ,3,0,0.,12.0,0.,12.0,0.,12.0,0.,12.0
1979-03-10 01:14:27.010 ,2,0,0.,12.0,0.,12.0,0.,12.0,0.,12.0
1979-03-10 01:14:39.010 ,2,0,0.,12.0,0.,12.0,0.,12.0,0.,12.0
1979-03-10 01:14:51.010 ,1,0,0.,12.0,0.,12.0,0.,12.0,0.,12.0
1979-03-10 01:15:03.010 ,1,0,0.,12.0,0.,12.0,0.,12.0,0.,12.0
1979-03-10 01:15:15.010 ,0,0,0.,12.0,0.,12.0,0.,12.0,0.,12.0
1979-03-10 01:15:27.010 ,0,0,0.,12.0,0.,12.0,0.,12.0,0.,12.0
1979-03-10 01:15:39.010 ,0,0,0.,12.0,0.,12.0,0.,12.0,0.,12.0
1979-03-10 01:15:51.010 ,0,0,0.,12.0,0.,12.0,0.,12.0,0.,12.0
1979-03-10 01:16:03.010 ,1,0,0.,12.0,0.,12.0,0.,12.0,0.,12.0
1979-03-10 01:16:15.010 ,1,0,0.,12.0,0.,12.0,0.,12.0,0.,12.0
1979-03-10 01:16:27.010 ,2,0,0.,12.0,0.,12.0,0.,12.0,0.,12.0
1979-03-10 01:16:39.010 ,2,0,0.,12.0,0.,12.0,0.,12.0,0.,12.0
1979-03-10 01:16:51.010 ,3,0,0.,12.0,0.,12.0,0.,12.0,0.,12.0
1979-03-10 01:17:03.010 ,3,0,0.,12.0,0.,12.0,0.,12.0,0.,12.0
1979-03-10 01:17:15.010 ,4,0,0.,12.0,0.,12.0,0.,12.0,0.,12.0
1979-03-10 01:17:27.010 ,4,0,0.,12.0,0.,12.0,0.,12.0,0.,12.0
1979-03-10 01:17:39.010 ,5,0,0.,12.0,0.,12.0,0.,12.0,0.,12.0
1979-03-10 01:17:51.010 ,5,0,0.,12.0,0.,12.0,0.,12.0,0.,12.0
1979-03-10 01:18:03.010 ,6,0,0.,12.0,0.,12.0,0.,12.0,0.,12.0
1979-03-10 01:18:15.010 ,6,0,0.,12.0,0.,12.0,0.,12.0,0.,12.0
1979-03-10 01:18:27.010 ,7,0,0.,12.0,0.,12.0,0.,12.0,0.,12.0
1979-03-10 01:18:39.010 ,7,0,0.,12.0,0.,12.0,0.,12.0,0.,12.0
1979-03-10 01:18:51.010 ,7,0,0.,12.0,0.,12.0,0.,12.0,0.,12.0
1979-03-10 01:19:03.010 ,7,0,0.,12.0,0.,12.0,0.,12.0,0.,12.0
1979-03-10 01:19:15.010 ,6,0,0.,12.0,0.,12.0,0.,12.0,0.,12.0
1979-03-10 01:19:27.010 ,6,0,0.,12.0,0.,12.0,0.,12.0,0.,12.0
1979-03-10 01:19:39.010 ,5,0,0.,12.0,0.,12.0,0.,12.0,0.,12.0